Hot Springs Natl Park, AR

1:39 PM CST on January 23, 2017 (GMT -0600)
Hot Springs Memorial

Weather History for KHOT - October, 2012

Change the Weather History Date:

Thursday, October 18, 2012

  Actual Average Record
Temperature  
Mean Temperature 60 °F -  
Max Temperature 72 °F 74 °F 91 °F (2005)
Min Temperature 48 °F 49 °F 33 °F (1948)
Degree Days  
Heating Degree Days 5    
Growing Degree Days 10 (Base 50)    
Moisture  
Dew Point 37 °F    
Average Humidity 51    
Maximum Humidity 93    
Minimum Humidity 16    
Precipitation  
Precipitation 0.00 in - - ()
Sea Level Pressure  
Sea Level Pressure 29.84 in    
Wind  
Wind Speed 4 mph (West)    
Max Wind Speed 22 mph    
Max Gust Speed 32 mph    
Visibility 10 miles    
Events      
Averages and records for this station are not official NWS values.
T = Trace of Precipitation, MM = Missing Value Source: NWS Daily Summary

Daily Weather History Graph

Daily Weather History Graph

Search for Another Location

Airport or City:

Trip Planner

Search our weather history database for the weather conditions in past years. The results will help you decide how hot, cold, wet, or windy it might be!

Date:

Astronomy

Oct. 18, 2012 Rise Set
Actual Time 7:20 AM CDT 6:33 PM CDT
Civil Twilight 6:55 AM CDT 6:58 PM CDT
Nautical Twilight 6:26 AM CDT 7:28 PM CDT
Astronomical Twilight 5:56 AM CDT 7:57 PM CDT
Moon 10:54 AM CDT (10/18) 9:17 PM CDT (10/18)
Length of Visible Light 12h 03m
Length of Day
11h 12m
Waxing Crescent, 14% of the Moon is Illuminated
Oct 18
Waxing Crescent
Oct 21
First Quarter
Oct 29
Full
Nov 6
Last Quarter
Nov 13
New

Hourly Weather History & Observations

Time (CDT) Temp. Dew Point Humidity Pressure Visibility Wind Dir Wind Speed Gust Speed Precip Events Conditions
12:53 AM 57.0 °F 51.1 °F 81% 29.74 in 10.0 mi Calm Calm - N/A   Clear
1:53 AM 55.9 °F 51.1 °F 84% 29.79 in 10.0 mi Calm Calm - N/A   Clear
2:53 AM 54.0 °F 48.9 °F 83% 29.81 in 10.0 mi Calm Calm - N/A   Clear
3:53 AM 51.1 °F 48.9 °F 92% 29.80 in 10.0 mi Calm Calm - N/A   Clear
4:53 AM 50.0 °F 48.0 °F 93% 29.82 in 10.0 mi Calm Calm - N/A   Clear
5:53 AM 50.0 °F 46.9 °F 89% 29.84 in 10.0 mi Calm Calm - N/A   Clear
6:53 AM 48.9 °F 46.9 °F 93% 29.85 in 10.0 mi Calm Calm - N/A   Clear
7:53 AM 51.1 °F 46.9 °F 86% 29.87 in 10.0 mi Calm Calm - N/A   Partly Cloudy
8:53 AM 53.1 °F 46.9 °F 80% 29.90 in 10.0 mi NW 3.5 mph - N/A   Mostly Cloudy
9:53 AM 57.9 °F 46.0 °F 65% 29.91 in 10.0 mi Calm Calm - N/A   Scattered Clouds
10:53 AM 63.0 °F 42.1 °F 46% 29.91 in 10.0 mi West 6.9 mph - N/A   Overcast
11:53 AM 68.0 °F 33.1 °F 27% 29.90 in 10.0 mi West 6.9 mph - N/A   Clear
12:53 PM 70.0 °F 27.0 °F 20% 29.87 in 10.0 mi West 12.7 mph 24.2 mph N/A   Clear
1:53 PM 71.1 °F 26.1 °F 19% 29.84 in 10.0 mi WNW 11.5 mph 32.2 mph N/A   Clear
2:53 PM 72.0 °F 26.1 °F 18% 29.83 in 10.0 mi West 21.9 mph 29.9 mph N/A   Clear
3:53 PM 72.0 °F 25.0 °F 17% 29.83 in 10.0 mi West 12.7 mph 24.2 mph N/A   Clear
4:53 PM 71.1 °F 23.0 °F 16% 29.82 in 10.0 mi West 12.7 mph 26.5 mph N/A   Clear
5:53 PM 69.1 °F 24.1 °F 18% 29.81 in 10.0 mi West 11.5 mph 19.6 mph N/A   Clear
6:53 PM 66.0 °F 27.0 °F 23% 29.82 in 10.0 mi West 5.8 mph - N/A   Clear
7:53 PM 63.0 °F 28.0 °F 27% 29.84 in 10.0 mi West 5.8 mph - N/A   Clear
8:53 PM 57.9 °F 30.0 °F 35% 29.85 in 10.0 mi WSW 5.8 mph - N/A   Clear
9:53 PM 57.9 °F 30.0 °F 35% 29.85 in 10.0 mi West 6.9 mph - N/A   Clear
10:53 PM 57.9 °F 28.9 °F 33% 29.85 in 10.0 mi West 6.9 mph - N/A   Clear
11:53 PM 57.9 °F 28.9 °F 33% 29.84 in 10.0 mi West 5.8 mph - N/A   Mostly Cloudy